Le nostre stazioni meteo in Italia

Pubblicità
Il mio iltempo24.it
Grenoble/St.Geoirs, Francia (7486): Temperatura & dewpoint: 19.01.2020 05:00:00 - 25.01.2020 05:00:00 (CET)Grenoble/St.Geoirs, Francia (7486): Temperatura 5cm: 19.01.2020 05:00:00 - 25.01.2020 05:00:00 (CET)Grenoble/St.Geoirs, Francia (7486): Temperatura -20cm & Temperatura -100cm: 19.01.2020 05:00:00 - 25.01.2020 05:00:00 (CET)Grenoble/St.Geoirs, Francia (7486): velocità del vento & gusts: 19.01.2020 05:00:00 - 25.01.2020 05:00:00 (CET)Grenoble/St.Geoirs, Francia (7486): direzione del vento: 19.01.2020 05:00:00 - 25.01.2020 05:00:00 (CET)Grenoble/St.Geoirs, Francia (7486): reduced air pressure: 19.01.2020 05:00:00 - 25.01.2020 05:00:00 (CET)Grenoble/St.Geoirs, Francia (7486): visibility: 19.01.2020 05:00:00 - 25.01.2020 05:00:00 (CET)Grenoble/St.Geoirs, Francia (7486): ore di luce: 19.01.2020 05:00:00 - 25.01.2020 05:00:00 (CET)Grenoble/St.Geoirs, Francia (7486): precipitazioni: 19.01.2020 05:00:00 - 25.01.2020 05:00:00 (CET)
Data & Tempo tt [°C] td [°C] tt 5cm [°C] tt -20cm [°C] tt -100cm [°C] ff [km/h] ff [kn] fx [km/h] fx [kn] dd ppp [hPa] vv [km] sd [min] rr [mm]
25.01.2020 05:00:00 1,4 -0,1 -0,8 4,4 6,9 13 7 20 11 ENE 1023,2 7 0 0,0
25.01.2020 04:00:00 0,6 -0,4 -0,5 4,5 6,9 14 8 17 9 E 1023,6 7 0 0,0
25.01.2020 03:00:00 1,7 0,4 0,9 4,5 6,9 15 8 19 10 E 1024,0 7 0 0,0
25.01.2020 02:00:00 2,0 0,7 -0,5 4,5 6,9 14 8 19 10 E 1024,1 8 0 0,0
25.01.2020 01:00:00 0,7 -0,8 -0,8 4,5 6,9 16 9 20 11 E 1024,2 8 0 0,0
25.01.2020 00:00:00 1,4 -0,2 -0,2 4,5 6,9 14 8 22 12 E 1024,0 7 0 0,0
24.01.2020 23:00:00 0,8 -0,1 -1,5 4,5 6,9 13 7 16 9 ENE 1024,4 8 0 0,0
24.01.2020 22:00:00 2,1 0,6 -0,7 4,5 6,9 9 5 15 8 ENE 1024,4 6 0 0,0
24.01.2020 21:00:00 3,1 0,7 1,6 4,4 6,9 13 7 23 13 E 1024,1 8 0 0,0
24.01.2020 20:00:00 6,2 3,4 5,1 4,3 6,9 16 8 21 11 ENE 1023,2 10 0 0,0
24.01.2020 19:00:00 6,0 3,5 5,5 4,3 6,9 13 7 18 10 E 1023,3 9 0 0,0
24.01.2020 18:00:00 6,5 3,8 5,8 4,2 6,9 10 6 13 7 ENE 1023,0 15 0 0,0
24.01.2020 17:00:00 7,1 4,1 6,5 4,1 6,9 11 6 13 7 E 1022,7 13 0 0,0
24.01.2020 16:00:00 8,0 3,5 8,1 4,0 6,9 10 5 20 11 E 1022,8 14 5 0,0
24.01.2020 15:00:00 8,7 3,3 9,7 3,9 6,9 13 7 21 11 E 1022,8 17 0 0,0
24.01.2020 14:00:00 8,1 3,0 9,0 3,9 6,9 16 9 26 14 ENE 1023,3 17 15 0,0
24.01.2020 13:00:00 7,0 2,5 8,2 3,9 6,9 21 11 26 14 E 1024,2 13 7 0,0
24.01.2020 12:00:00 6,6 2,1 7,0 3,9 7,0 18 10 28 15 E 1025,1 11 13 0,0
24.01.2020 11:00:00 5,9 1,8 4,9 3,9 7,0 18 10 30 16 E 1025,4 11 32 0,0
24.01.2020 10:00:00 4,1 1,5 2,7 3,9 7,0 16 9 27 15 ENE 1025,5 12 0 0,0
24.01.2020 09:00:00 2,6 0,7 1,5 3,9 7,0 19 10 23 12 E 1026,0 12 0 0,0
24.01.2020 08:00:00 2,0 0,2 -0,1 3,9 7,0 15 8 21 11 E 1026,0 10 0 0,0
24.01.2020 07:00:00 0,9 -0,4 0,1 3,9 7,0 15 8 24 13 E 1025,9 10 0 0,0
24.01.2020 06:00:00 2,5 0,7 0,2 3,9 7,0 18 10 23 12 E 1025,4 13 0 0,0
24.01.2020 05:00:00 1,6 -0,3 -0,8 4,0 7,0 11 6 23 12 ENE 1025,6 10 0 0,0
24.01.2020 04:00:00 2,3 0,0 1,3 4,0 7,0 13 7 27 14 ESE 1025,7 8 0 0,0
24.01.2020 03:00:00 2,7 -0,1 1,3 4,0 7,0 18 10 27 15 ENE 1026,1 9 0 0,0
24.01.2020 02:00:00 3,3 0,0 1,4 4,0 7,0 19 10 29 16 E 1026,1 9 0 0,0
24.01.2020 01:00:00 2,8 -0,5 1,3 4,0 7,0 20 11 30 16 ENE 1026,6 8 0 0,0
24.01.2020 00:00:00 2,7 -0,4 0,2 4,0 7,0 18 10 29 16 ENE 1026,9 8 0 0,0
23.01.2020 23:00:00 2,5 -0,3 1,5 4,0 7,0 24 13 33 18 E 1027,0 7 0 0,0
23.01.2020 22:00:00 2,8 0,0 0,8 4,0 7,0 19 11 30 16 ENE 1027,4 7 0 0,0
23.01.2020 21:00:00 1,8 -0,5 0,2 3,9 7,0 18 10 23 13 E 1027,5 8 0 0,0
23.01.2020 20:00:00 2,5 -0,3 0,0 3,9 7,0 18 10 23 12 ENE 1027,3 6 0 0,0
23.01.2020 19:00:00 2,1 -0,5 0,8 3,8 7,1 16 8 24 13 E 1027,0 7 0 0,0
23.01.2020 18:00:00 3,0 0,2 1,6 3,7 7,0 15 8 19 11 E 1026,4 7 0 0,0
23.01.2020 17:00:00 6,0 1,5 5,7 3,7 7,1 16 8 19 11 E 1025,6 8 0 0,0
23.01.2020 16:00:00 7,2 2,3 7,4 3,6 7,1 15 8 21 11 E 1025,0 9 0 0,0
23.01.2020 15:00:00 8,0 2,2 8,8 3,5 7,1 14 8 21 12 E 1025,2 9 23 0,0
23.01.2020 14:00:00 7,5 2,0 7,5 3,5 7,1 14 8 22 12 E 1025,8 8 28 0,0
23.01.2020 13:00:00 5,8 1,5 6,0 3,6 7,1 10 6 15 8 E 1027,0 7 19 0,0
23.01.2020 12:00:00 4,2 0,7 5,0 3,6 7,1 11 6 19 10 E 1027,9 6 0 0,0
23.01.2020 11:00:00 3,8 0,5 3,7 3,6 7,1 16 9 22 12 E 1028,2 8 34 0,0
23.01.2020 10:00:00 2,7 0,4 0,3 3,6 7,1 13 7 26 14 ESE 1027,7 7 19 0,0
23.01.2020 09:00:00 0,2 -0,7 -2,2 3,7 7,1 12 6 17 9 E 1028,2 4,6 0 0,0
23.01.2020 08:00:00 -1,4 -2,0 -5,3 3,7 7,1 15 8 19 10 E 1028,8 3,8 0 0,0
23.01.2020 07:00:00 -2,2 -2,9 -6,0 3,8 7,1 3 2 10 6 E 1029,7 2,1 0 0,0
23.01.2020 06:00:00 -2,2 -2,8 -6,0 3,8 7,1 5 3 8 5 NNO 1029,8 2,9 0 0,0
23.01.2020 05:00:00 -1,9 -2,9 -5,9 3,8 7,1 3 2 8 4 SO 1029,4 3,1 0 0,0
23.01.2020 04:00:00 -0,9 -1,6 -4,3 3,9 7,1 5 3 9 5 NO 1029,5 4,4 0 0,0
23.01.2020 03:00:00 -1,8 -2,5 -4,9 3,9 7,2 4 2 11 6 SE 1030,0 3,1 0 0,0
23.01.2020 02:00:00 -2,1 -2,7 -5,2 3,9 7,1 4 2 7 4 ENE 1030,5 2,8 0 0,0
23.01.2020 01:00:00 -1,9 -2,9 -5,2 3,9 7,1 0 0 5 3 N 1031,1 2,0 0 0,0
23.01.2020 00:00:00 -0,8 -1,6 -3,8 4,0 7,2 2 1 10 5 ONO 1031,0 3,0 0 0,0
22.01.2020 23:00:00 -1,2 -2,2 -4,3 4,0 7,2 6 4 10 5 SSO 1031,2 4,2 0 0,0
22.01.2020 22:00:00 -0,6 -1,3 -5,3 3,9 7,2 6 4 8 5 E 1031,3 5 0 0,0
22.01.2020 21:00:00 -0,1 -1,0 -4,4 3,9 7,2 0 0 8 5 N 1031,6 3,9 0 0,0
22.01.2020 20:00:00 -0,3 -2,5 -4,4 3,9 7,2 4 2 8 4 SSE 1031,8 6 0 0,0
22.01.2020 19:00:00 0,2 -2,3 -3,2 3,8 7,2 3 2 5 3 E 1031,9 6 0 0,0
22.01.2020 18:00:00 2,6 -0,5 -1,8 3,8 7,2 0 0 13 7 N 1031,3 7 0 0,0
22.01.2020 17:00:00 4,2 0,3 2,9 3,7 7,2 7 4 15 8 N 1030,9 8 0 0,0
22.01.2020 16:00:00 6,6 0,9 8,1 3,7 7,2 4 2 14 8 ENE 1030,7 11 22 0,0
22.01.2020 15:00:00 6,6 0,7 9,2 3,6 7,2 9 5 18 10 N 1031,3 10 35 0,0
22.01.2020 14:00:00 6,2 0,5 8,3 3,7 7,2 12 6 17 9 N 1032,0 9 27 0,0
22.01.2020 13:00:00 5,2 0,4 7,1 3,7 7,2 13 7 23 12 E 1032,9 7 55 0,0
22.01.2020 12:00:00 4,8 0,4 4,7 3,7 7,2 12 6 18 10 E 1033,9 8 43 0,0
22.01.2020 11:00:00 1,0 -0,3 2,9 3,7 7,2 3 2 12 7 ONO 1034,6 5 52 0,0
22.01.2020 10:00:00 -0,4 -1,5 -2,0 3,8 7,3 7 4 12 6 NO 1034,3 6 24 0,0
22.01.2020 09:00:00 -0,6 -2,3 -2,1 3,8 7,3 4 2 15 8 E 1034,0 9 0 0,0
22.01.2020 08:00:00 -1,4 -2,8 -5,8 3,8 7,3 10 6 16 9 ENE 1034,2 6 0 0,0
22.01.2020 07:00:00 -3,0 -3,8 -7,4 3,9 7,3 3 1 6 3 NE 1034,7 7 0 0,0
22.01.2020 06:00:00 -2,9 -4,0 -6,9 3,9 7,3 3 2 13 7 NNE 1034,8 7 0 0,0
22.01.2020 05:00:00 -2,4 -3,4 -6,8 3,9 7,3 8 4 10 6 E 1035,4 6 0 0,0
22.01.2020 04:00:00 -2,2 -3,0 -5,2 3,9 7,3 5 3 15 8 E 1035,8 3,7 0 0,0
22.01.2020 03:00:00 -2,2 -3,0 -5,3 4,0 7,4 3 1 4 2 NE 1036,2 3,9 0 0,0
22.01.2020 02:00:00 -2,3 -3,1 -3,7 4,0 7,4 5 3 8 5 SSE 1036,2 4,6 0 0,0
22.01.2020 01:00:00 -2,2 -3,2 -3,6 4,0 7,3 8 5 10 6 E 1036,5 3,9 0 0,0
22.01.2020 00:00:00 -1,7 -2,8 -3,5 4,0 7,4 9 5 11 6 ESE 1037,3 3,7 0 0,0
21.01.2020 23:00:00 -2,0 -3,1 -4,4 4,0 7,4 5 3 8 5 E 1037,6 4,1 0 0,0
21.01.2020 22:00:00 -0,9 -1,9 -4,1 4,0 7,4 4 2 9 5 E 1037,8 4,9 0 0,0
21.01.2020 21:00:00 -0,9 -2,2 -3,3 4,0 7,4 3 2 10 5 ENE 1037,6 6 0 0,0
21.01.2020 20:00:00 -0,2 -2,9 -3,6 4,0 7,4 5 3 11 6 NE 1037,8 7 0 0,0
21.01.2020 19:00:00 0,9 -2,3 -1,6 4,0 7,4 8 4 16 9 NNE 1037,1 10 0 0,0
21.01.2020 18:00:00 2,0 -1,8 0,7 3,9 7,4 10 5 23 12 NNE 1036,5 10 0 0,0
21.01.2020 17:00:00 3,3 -1,1 2,8 3,8 7,4 11 6 18 10 N 1036,1 11 0 0,0
21.01.2020 16:00:00 3,8 -0,8 5,5 3,8 7,4 2 1 5 3 NNO 1036,7 12 0 0,0
21.01.2020 15:00:00 3,7 -1,3 4,9 3,8 7,5 4 2 10 6 NO 1037,4 11 0 0,0
21.01.2020 14:00:00 3,5 -1,3 4,7 3,8 7,4 8 4 12 7 OSO 1038,3 12 9 0,0
21.01.2020 13:00:00 5,0 -1,3 7,8 3,8 7,4 5 3 15 8 O 1038,8 13 56 0,0
21.01.2020 12:00:00 4,5 -1,3 4,4 3,8 7,4 3 2 11 6 OSO 1039,6 13 38 0,0
21.01.2020 11:00:00 2,7 -1,8 2,3 3,8 7,5 9 5 13 7 ENE 1040,1 11 51 0,0
21.01.2020 10:00:00 0,4 -2,3 -2,1 3,9 7,5 4 2 11 6 E 1040,3 10 7 0,0
21.01.2020 09:00:00 -1,8 -3,8 -5,6 3,8 7,4 11 6 15 8 E 1040,3 11 0 0,0
21.01.2020 08:00:00 -3,2 -4,8 -6,2 3,9 7,5 10 6 14 8 E 1040,2 11 0 0,0
21.01.2020 07:00:00 -1,8 -3,1 -5,8 3,9 7,5 3 2 7 4 ENE 1039,5 9 0 0,0
21.01.2020 06:00:00 -1,5 -2,5 -4,0 3,9 7,5 3 1 6 3 NNE 1039,4 8 0 0,0
21.01.2020 05:00:00 -1,2 -2,2 -2,7 4,0 7,5 3 1 5 3 OSO 1039,5 8 0 0,0
21.01.2020 04:00:00 -1,2 -2,3 -2,5 4,0 7,5 3 1 8 4 SE 1039,6 7 0 0,0
21.01.2020 03:00:00 -0,9 -2,2 -3,2 4,0 7,5 0 0 4 2 N 1039,9 8 0 0,0
21.01.2020 02:00:00 -1,5 -2,6 -3,9 4,0 7,5 4 2 9 5 ESE 1040,2 6 0 0,0
21.01.2020 01:00:00 -1,2 -2,5 -4,1 4,0 7,5 2 1 13 7 SE 1040,3 8 0 0,0
21.01.2020 00:00:00 -1,1 -2,7 -4,4 4,1 7,6 8 4 14 7 SE 1040,3 8 0 0,0
20.01.2020 23:00:00 -1,0 -2,0 -3,9 4,1 7,6 4 2 5 3 E 1039,9 6 0 0,0
20.01.2020 22:00:00 -0,7 -2,4 -1,9 4,1 7,6 6 3 9 5 S 1039,5 7 0 0,0
20.01.2020 21:00:00 -0,1 -2,8 -2,9 4,1 7,6 8 4 14 8 E 1039,5 13 0 0,0
20.01.2020 20:00:00 -0,5 -2,7 -4,0 4,1 7,6 4 2 11 6 E 1039,5 11 0 0,0
20.01.2020 19:00:00 -1,7 -4,2 -4,9 4,1 7,6 9 5 13 7 E 1039,7 15 0 0,0
20.01.2020 18:00:00 1,0 -3,3 -3,0 4,1 7,6 9 5 13 7 NE 1039,3 19 0 0,0
20.01.2020 17:00:00 2,1 -2,6 1,4 4,1 7,6 12 6 17 9 N 1038,9 24 34 0,0
20.01.2020 16:00:00 3,3 -3,1 4,7 4,1 7,6 11 6 18 10 NO 1038,6 28 48 0,0
20.01.2020 15:00:00 3,3 -2,0 5,0 4,1 7,6 8 4 21 12 NO 1038,4 28 31 0,0
20.01.2020 14:00:00 2,9 -2,8 3,1 4,2 7,6 12 7 19 11 N 1038,9 15 7 0,0
20.01.2020 13:00:00 1,7 -2,6 3,2 4,2 7,6 10 5 27 15 N 1039,1 15 0 0,0
20.01.2020 12:00:00 1,7 -1,0 2,2 4,3 7,6 0 0 8 4 N 1039,4 13 31 0,0
20.01.2020 11:00:00 -0,5 -1,3 -2,3 4,4 7,6 6 3 10 5 O 1039,9 7 14 0,0
20.01.2020 10:00:00 -2,8 -3,2 -7,7 4,4 7,6 4 2 7 4 SSO 1040,0 9 0 0,0
20.01.2020 09:00:00 -5,1 -5,8 -9,8 4,4 7,6 5 3 10 6 SSE 1040,1 8 0 0,0
20.01.2020 08:00:00 -5,2 -6,0 -10,2 4,5 7,6 3 2 6 3 SSE 1039,4 8 0 0,0
20.01.2020 07:00:00 -4,0 -4,4 -9,9 4,6 7,6 2 1 7 4 S 1038,5 11 0 0,0
20.01.2020 06:00:00 -4,9 -5,7 -9,9 4,6 7,7 4 2 8 4 S 1038,4 8 0 0,0
20.01.2020 05:00:00 -4,5 -5,2 -9,4 4,7 7,7 3 2 9 5 S 1038,0 7 0 0,0
20.01.2020 04:00:00 -3,5 -4,0 -9,2 4,7 7,7 4 2 6 4 S 1038,0 8 0 0,0
20.01.2020 03:00:00 -2,9 -3,7 -8,4 4,7 7,7 2 1 5 3 NO 1037,9 12 0 0,0
20.01.2020 02:00:00 -1,5 -2,8 -5,9 4,8 7,7 3 1 9 5 ESE 1037,5 20 0 0,0
20.01.2020 01:00:00 -1,1 -2,7 -4,6 4,8 7,7 5 3 24 13 NO 1037,0 20 0 0,0
20.01.2020 00:00:00 0,1 -2,0 -2,0 4,9 7,7 17 9 26 14 NNO 1036,4 22 0 0,0
19.01.2020 23:00:00 -0,2 -2,6 -2,4 4,9 7,7 11 6 19 11 NO 1036,1 35 0 0,0
19.01.2020 22:00:00 0,6 -3,1 -1,6 4,9 7,7 11 6 21 12 N 1035,9 44 0 0,0
19.01.2020 21:00:00 1,0 -3,5 -0,5 4,9 7,7 11 6 29 16 N 1035,5 45 0 0,0
19.01.2020 20:00:00 1,4 -2,7 0,3 4,9 7,7 14 8 41 22 N 1034,5 43 0 0,0
19.01.2020 19:00:00 1,8 -2,2 0,3 4,9 7,7 15 8 27 15 N 1034,0 41 0 0,0
19.01.2020 18:00:00 2,6 -1,6 1,4 4,8 7,7 16 8 35 19 N 1033,3 37 0 0,0
19.01.2020 17:00:00 3,8 -1,0 2,8 4,8 7,7 19 10 35 19 N 1032,6 34 27 0,0
19.01.2020 16:00:00 4,5 -0,1 5,1 4,8 7,7 15 8 32 18 N 1032,1 46 40 0,0
19.01.2020 15:00:00 4,1 -0,1 4,8 4,8 7,7 20 11 32 17 N 1032,0 35 21 0,0
19.01.2020 14:00:00 3,4 -0,6 5,8 4,8 7,7 8 5 26 14 N 1032,1 44 49 0,0
19.01.2020 13:00:00 2,1 -1,0 3,7 4,8 7,7 4 2 21 11 N 1032,4 28 5 0,0
19.01.2020 12:00:00 1,4 -0,8 3,7 4,8 7,7 13 7 21 11 NNO 1032,4 31 33 0,0
19.01.2020 11:00:00 1,1 -0,8 1,7 4,9 7,7 11 6 17 9 NNO 1032,0 20 33 0,0
19.01.2020 10:00:00 0,2 -1,4 -1,0 4,9 7,7 7 4 16 9 NO 1031,4 22 8 0,0
19.01.2020 09:00:00 -0,6 -1,9 -1,7 5,0 7,7 9 5 22 12 NO 1031,1 34 0 0,0
19.01.2020 08:00:00 -0,8 -2,1 -1,8 5,0 7,7 13 7 23 12 NNO 1030,6 27 0 0,0
19.01.2020 07:00:00 -0,8 -1,9 -2,1 5,1 7,7 14 7 24 13 NNO 1030,1 25 0 0,0
19.01.2020 06:00:00 -1,0 -1,8 -5,3 5,2 7,7 13 7 15 8 NNO 1029,6 23 0 0,0
19.01.2020 05:00:00 -1,3 -1,9 -4,9 5,2 7,7 5 3 10 5 O 1029,3 19 0 0,0

tt = Temperatura
td = dewpoint
tt 5cm = Temperatura 5cm
tt -20cm = Temperatura -20cm
tt -100cm = Temperatura -100cm
ff = velocità del vento
fx = gusts
dd = direzione del vento
ppp = reduced air pressure
vv = visibility
sd = ore di luce
rr = precipitazioni

Stazioni seguenti

WeatherPro
AMSI
MeteoEarth